Weather History for Hamilton, OH

Change the Weather History Date:

Sunday, February 17, 2013

  Actual Average (KCVG) Record (KCVG)
Temperature  
Mean Temperature 21 °F 35 °F  
Max Temperature 32 °F 43 °F 70 °F (1911)
Min Temperature 10 °F 26 °F -4 °F (1958)
Degree Days  
Heating Degree Days 44 30  
Month to date heating degree days 542  
Since 1 July heating degree days 3514  
Cooling Degree Days 0 0  
Month to date cooling degree days 0  
Year to date cooling degree days 0  
Moisture  
Dew Point 9 °F    
Average Humidity 63    
Maximum Humidity 87    
Minimum Humidity 32    
Precipitation  
Precipitation 0.00 in 0.09 in 1.02 in (1976)
Month to date precipitation 1.73  
Year to date precipitation 4.73  
Snow  
Snow 0.00 in 0.30 in 10.80 in (1910)
Month to date snowfall 4.4  
Since 1 July snowfall 16.5  
Snow Depth -    
Sea Level Pressure  
Sea Level Pressure 30.22 in    
Wind  
Wind Speed 3 mph (NW)    
Max Wind Speed 8 mph    
Max Gust Speed -    
Visibility 9 miles    
Events Snow    
T = Trace of Precipitation, MM = Missing Value Source: NWS Daily Summary

Daily Weather History Graph

Daily Weather History Graph

Search for Another Location

Airport:

Trip Planner

Search our weather history database for the weather conditions in past years. The results will help you decide how hot, cold, wet, or windy it might be!

Date:

Astronomy

Feb. 17, 2013 Rise Set
Actual Time 7:27 AM EST 6:17 PM EST
Civil Twilight 6:59 AM EST 6:44 PM EST
Nautical Twilight 6:28 AM EST 7:16 PM EST
Astronomical Twilight 5:57 AM EST 7:47 PM EST
Moon 11:22 AM EST (2/17) 1:09 AM EST (2/17)
Length of Visible Light 11h 45m
Length of Day
10h 50m
Waxing Crescent, 49% of the Moon is Illuminated
Feb 17
Waxing Crescent
Feb 17
First Quarter
Feb 25
Full
Mar 4
Last Quarter
Mar 11
New

Hourly Weather History & Observations

Time (EST) Temp. Windchill Dew Point Humidity Pressure Visibility Wind Dir Wind Speed Gust Speed Precip Events Conditions
12:53 AM 19.0 °F - 10.9 °F 71% 30.16 in 10.0 mi Calm Calm - N/A   Overcast
1:53 AM 19.0 °F 9.0 °F 10.9 °F 71% 30.17 in 10.0 mi NNW 8.1 mph - 0.00 in   Overcast
2:19 AM 19.4 °F 9.5 °F 12.2 °F 74% 30.15 in 2.5 mi North 8.1 mph - 0.00 in Snow Light Snow
2:27 AM 19.4 °F 12.8 °F 12.2 °F 74% 30.15 in 1.8 mi NNW 4.6 mph - 0.00 in Snow Light Snow
2:30 AM 19.4 °F 12.8 °F 12.2 °F 74% 30.15 in 3.0 mi NW 4.6 mph - 0.00 in Snow Light Snow
2:41 AM 19.4 °F 12.8 °F 12.2 °F 74% 30.15 in 10.0 mi NW 4.6 mph - 0.00 in   Overcast
2:53 AM 19.0 °F 13.9 °F 12.9 °F 77% 30.17 in 10.0 mi NW 3.5 mph - 0.00 in   Overcast
3:53 AM 14.0 °F 8.2 °F 10.0 °F 84% 30.18 in 10.0 mi WNW 3.5 mph - N/A   Clear
4:53 AM 12.0 °F - 8.1 °F 84% 30.19 in 10.0 mi Calm Calm - N/A   Clear
5:53 AM 10.0 °F - 6.1 °F 84% 30.21 in 10.0 mi Calm Calm - N/A   Clear
6:53 AM 10.0 °F - 7.0 °F 87% 30.23 in 10.0 mi Calm Calm - N/A   Clear
8:53 AM 18.0 °F 9.8 °F 9.0 °F 68% 30.27 in 10.0 mi WNW 5.8 mph - N/A   Clear
9:53 AM 21.0 °F 13.4 °F 10.0 °F 63% 30.27 in 10.0 mi WNW 5.8 mph - N/A   Clear
11:53 AM 25.0 °F 18.1 °F 8.1 °F 49% 30.29 in 10.0 mi NW 5.8 mph - N/A   Clear
12:53 PM 28.0 °F 22.8 °F 8.1 °F 43% 30.27 in 10.0 mi West 4.6 mph - N/A   Clear
1:53 PM 28.9 °F 22.8 °F 7.0 °F 40% 30.26 in 10.0 mi WNW 5.8 mph - N/A   Clear
2:53 PM 30.9 °F 26.2 °F 6.1 °F 35% 30.25 in 10.0 mi Variable 4.6 mph - N/A   Clear
3:53 PM 32.0 °F 25.6 °F 5.0 °F 32% 30.26 in 10.0 mi WSW 6.9 mph - N/A   Clear
4:53 PM 30.9 °F 26.2 °F 5.0 °F 33% 30.24 in 10.0 mi West 4.6 mph - N/A   Clear
5:53 PM 30.0 °F - 3.9 °F 33% 30.25 in 10.0 mi Calm Calm - N/A   Clear
6:53 PM 23.0 °F - 8.1 °F 53% 30.25 in 10.0 mi Calm Calm - N/A   Clear
7:53 PM 19.9 °F - 8.1 °F 60% 30.26 in 10.0 mi Calm Calm - N/A   Clear
8:53 PM 18.0 °F - 10.0 °F 71% 30.25 in 10.0 mi Calm Calm - N/A   Clear
9:53 PM 18.0 °F - 10.0 °F 71% 30.26 in 10.0 mi Calm Calm - N/A   Clear
10:53 PM 19.0 °F 13.9 °F 9.0 °F 65% 30.26 in 10.0 mi East 3.5 mph - N/A   Clear